Location: Seminole
(32.7190°N, 102.6440°W)
Time: 09:18:21
(UTC-05:00)

Meteor 2-10 - Visible Passes

Search period start: 29 August 2016 00:00
Search period end: 08 September 2016 00:00
Orbit: 738 x 869 km, 81.2° (Epoch: 28 August)

Date Brightness Start Highest point End Pass type
(mag) Time Alt. Az. Time Alt. Az. Time Alt. Az.
29 Aug 5.3 04:36:17 35° N 04:36:17 35° N 04:39:20 10° N visible
30 Aug 5.8 04:10:53 28° NNE 04:10:53 28° NNE 04:13:19 10° NNE visible
31 Aug 6.4 03:45:27 20° NNE 03:45:27 20° NNE 03:47:09 10° NNE visible
31 Aug 6.2 05:26:30 13° NW 05:26:30 13° NW 05:27:28 10° NNW visible
01 Sep 6.8 03:20:01 14° NE 03:20:01 14° NE 03:20:47 10° NNE visible
01 Sep 6.2 05:01:04 15° NNW 05:01:04 15° NNW 05:02:17 10° NNW visible
02 Sep 6.3 04:35:35 16° NNW 04:35:35 16° NNW 04:36:45 10° N visible
03 Sep 6.5 04:10:06 15° N 04:10:06 15° N 04:11:00 10° N visible
04 Sep 6.8 03:44:34 13° N 03:44:34 13° N 03:45:05 10° N visible
